Total_Precipitation_Accumulation
0.03 0.04 0.05 0.05 0.05 0.05 0.05 0.05 0.04 0.03 0.03 0.03 0.03 0.03 0.03 0.03 0.01 0.00 0.00 0.00 0.00 0.00 0.00 0.00 0.00 0.00 0.00 0.00 0.00 0.00 0.01 0.00 0.00 0.00 0.00 0.00 0.00 0.00 0.00 0.00 0.00 0.00 0.00 0.00 0.00
0.02 0.03 0.04 0.05 0.06 0.05 0.05 0.06 0.05 0.04 0.05 0.05 0.08 0.09 0.06 0.04 0.01 0.00 0.00 0.00 0.00 0.00 0.00 0.00 0.00 0.01 0.00 0.00 0.01 0.03 0.01 0.00 0.00 0.00 0.00 0.00 0.00 0.00 0.00 0.00 0.00 0.00 0.00 0.00 0.00
0.04 0.03 0.04 0.06 0.06 0.06 0.06 0.07 0.06 0.06 0.05 0.07 0.11 0.17 0.14 0.06 0.01 0.00 0.00 0.00 0.00 0.00 0.00 0.00 0.00 0.03 0.03 0.02 0.01 0.02 0.01 0.00 0.00 0.00 0.00 0.00 0.00 0.00 0.00 0.00 0.00 0.00 0.00 0.00 0.00
0.09 0.08 0.07 0.06 0.08 0.08 0.08 0.08 0.10 0.11 0.10 0.09 0.18 0.27 0.18 0.07 0.03 0.00 0.00 0.00 0.00 0.00 0.00 0.00 0.00 0.02 0.02 0.02 0.03 0.04 0.00 0.00 0.00 0.00 0.00 0.00 0.00 0.00 0.00 0.00 0.00 0.00 0.00 0.00 0.00
0.09 0.13 0.16 0.13 0.14 0.14 0.10 0.10 0.11 0.13 0.11 0.14 0.27 0.34 0.23 0.08 0.02 0.00 0.00 0.00 0.00 0.00 0.02 0.01 0.01 0.02 0.02 0.00 0.02 0.04 0.01 0.02 0.01 0.01 0.00 0.00 0.00 0.00 0.00 0.00 0.00 0.00 0.00 0.00 0.00
0.16 0.20 0.19 0.23 0.26 0.21 0.15 0.16 0.18 0.19 0.16 0.16 0.34 0.31 0.20 0.07 0.00 0.00 0.00 0.00 0.00 0.00 0.01 0.04 0.04 0.04 0.03 0.01 0.01 0.00 0.01 0.02 0.02 0.02 0.01 0.01 0.00 0.00 0.00 0.00 0.00 0.00 0.00 0.00 0.00
0.17 0.21 0.31 0.31 0.21 0.22 0.29 0.31 0.28 0.20 0.22 0.30 0.39 0.23 0.20 0.04 0.00 0.00 0.00 0.00 0.00 0.00 0.00 0.00 0.02 0.07 0.05 0.03 0.00 0.00 0.01 0.01 0.00 0.00 0.00 0.05 0.03 0.00 0.00 0.00 0.00 0.00 0.00 0.00 0.00
0.20 0.21 0.25 0.26 0.36 0.38 0.30 0.26 0.37 0.39 0.38 0.36 0.24 0.21 0.19 0.00 0.00 0.00 0.00 0.00 0.00 0.00 0.00 0.00 0.00 0.02 0.03 0.04 0.05 0.05 0.07 0.02 0.00 0.00 0.00 0.07 0.03 0.00 0.00 0.00 0.00 0.00 0.00 0.00 0.00
0.27 0.27 0.27 0.29 0.30 0.37 0.39 0.41 0.38 0.35 0.41 0.39 0.37 0.36 0.14 0.00 0.00 0.00 0.00 0.00 0.00 0.00 0.00 0.01 0.05 0.08 0.08 0.11 0.10 0.07 0.06 0.02 0.00 0.01 0.01 0.05 0.01 0.00 0.00 0.00 0.00 0.00 0.00 0.00 0.00
0.33 0.36 0.36 0.35 0.41 0.58 0.64 0.56 0.43 0.42 0.29 0.36 0.58 0.69 0.16 0.00 0.00 0.00 0.00 0.00 0.01 0.02 0.03 0.05 0.10 0.10 0.15 0.17 0.12 0.02 0.02 0.01 0.01 0.03 0.10 0.09 0.02 0.00 0.00 0.00 0.00 0.00 0.00 0.00 0.00
0.37 0.43 0.48 0.51 0.53 0.75 0.94 0.88 0.93 0.78 0.61 0.27 0.21 0.12 0.01 0.02 0.03 0.00 0.00 0.00 0.00 0.05 0.06 0.05 0.11 0.10 0.07 0.08 0.03 0.04 0.07 0.08 0.01 0.01 0.11 0.22 0.16 0.02 0.00 0.00 0.00 0.00 0.00 0.00 0.00
0.48 0.54 0.66 0.75 0.69 0.73 0.78 0.65 0.48 0.65 0.41 0.14 0.06 0.04 0.01 0.02 0.02 0.00 0.02 0.05 0.02 0.02 0.01 0.10 0.14 0.02 0.02 0.05 0.05 0.05 0.04 0.01 0.00 0.00 0.08 0.09 0.05 0.03 0.04 0.00 0.00 0.00 0.00 0.00 0.00
0.65 0.67 0.80 0.90 0.96 0.87 0.64 0.44 0.37 0.47 0.63 0.15 0.05 0.03 0.01 0.01 0.01 0.00 0.01 0.06 0.04 0.01 0.01 0.04 0.08 0.00 0.03 0.04 0.06 0.05 0.04 0.02 0.01 0.01 0.02 0.02 0.02 0.00 0.00 0.00 0.00 0.00 0.00 0.00 0.00
0.75 0.84 1.00 0.98 1.18 0.79 0.75 0.56 0.47 0.88 1.31 0.32 0.02 0.03 0.01 0.04 0.05 0.00 0.00 0.04 0.11 0.03 0.01 0.04 0.00 0.03 0.06 0.05 0.06 0.07 0.01 0.03 0.04 0.13 0.10 0.06 0.11 0.00 0.00 0.00 0.00 0.00 0.00 0.00 0.00
1.05 1.08 1.18 1.19 0.78 0.81 0.66 0.60 0.84 1.52 2.23 0.31 0.00 0.00 0.00 0.09 0.06 0.01 0.01 0.07 0.11 0.09 0.11 0.06 0.00 0.01 0.05 0.04 0.06 0.05 0.05 0.07 0.05 0.09 0.11 0.06 0.16 0.04 0.00 0.00 0.00 0.00 0.00 0.00 0.00
0.97 1.36 1.13 0.98 0.91 0.57 0.58 1.24 1.76 2.29 2.12 0.28 0.10 0.06 0.05 0.02 0.00 0.04 0.14 0.12 0.15 0.14 0.25 0.09 0.00 0.01 0.02 0.02 0.07 0.05 0.10 0.15 0.19 0.21 0.64 0.22 0.09 0.05 0.00 0.00 0.00 0.00 0.00 0.00 0.00
1.30 1.37 1.38 0.90 0.95 0.75 1.18 2.19 2.63 2.07 0.63 0.30 0.12 0.18 0.16 0.03 0.01 0.07 0.21 0.30 0.16 0.53 0.48 0.30 0.06 0.01 0.05 0.09 0.12 0.29 0.37 0.71 0.92 0.95 0.80 0.08 0.07 0.04 0.00 0.00 0.00 0.00 0.00 0.00 0.00
1.41 1.48 1.15 1.01 0.83 1.17 1.87 2.43 2.59 0.62 0.19 0.17 0.14 0.14 0.21 0.21 0.10 0.07 0.17 0.42 0.30 0.25 0.47 0.30 0.18 0.03 0.06 0.08 0.14 0.27 0.72 0.78 0.58 0.53 0.21 0.04 0.04 0.01 0.00 0.00 0.00 0.00 0.00 0.00 0.00
1.27 1.35 1.42 1.02 0.83 1.52 2.33 2.53 1.29 0.26 0.11 0.11 0.09 0.25 0.18 0.39 0.50 0.24 0.13 0.18 0.54 0.54 0.73 0.68 0.18 0.04 0.02 0.01 0.07 0.14 0.46 0.54 0.30 0.16 0.22 0.12 0.04 0.00 0.00 0.00 0.00 0.00 0.00 0.00 0.00
1.48 1.51 1.69 1.27 1.24 1.77 2.36 1.66 0.47 0.07 0.11 0.10 0.22 0.26 0.44 0.26 0.52 0.71 0.33 0.06 0.11 0.57 0.88 0.71 0.53 0.07 0.07 0.10 0.08 0.07 0.12 0.41 1.01 0.93 0.29 0.06 0.02 0.00 0.00 0.00 0.00 0.00 0.00 0.00 0.00
1.82 1.94 1.48 1.60 1.75 2.19 2.09 0.70 0.12 0.03 0.13 0.26 0.14 0.19 0.24 0.44 0.64 0.72 0.64 0.16 0.07 0.15 0.64 1.11 0.76 0.17 0.19 0.32 0.18 0.27 0.29 0.47 0.90 0.61 0.35 0.17 0.01 0.00 0.00 0.00 0.00 0.00 0.00 0.00 0.00
2.10 2.02 1.55 1.86 2.67 2.16 1.02 0.16 0.06 0.04 0.10 0.24 0.25 0.15 0.10 0.21 0.67 0.80 0.49 0.42 0.33 0.22 0.17 0.52 1.10 0.46 0.24 0.28 0.25 0.23 0.61 0.72 0.90 0.74 0.41 0.31 0.12 0.01 0.01 0.01 0.00 0.00 0.00 0.00 0.00
2.21 1.55 1.82 1.47 2.09 1.44 0.56 0.17 0.11 0.06 0.14 0.28 0.20 0.09 0.06 0.18 0.73 0.60 0.63 0.46 0.56 0.47 0.39 0.33 0.77 0.86 0.48 0.62 0.48 0.53 0.26 0.41 0.45 0.37 0.28 0.33 0.15 0.03 0.04 0.02 0.01 0.00 0.00 0.00 0.00
2.50 1.90 2.31 2.31 1.08 0.56 0.56 0.41 0.28 0.11 0.12 0.21 0.21 0.17 0.25 0.16 0.31 0.44 0.31 0.33 0.35 0.49 0.43 0.54 0.72 0.72 0.54 0.99 1.09 0.97 0.74 0.36 0.46 0.39 0.16 0.14 0.06 0.09 0.09 0.05 0.02 0.01 0.01 0.00 0.00
2.51 1.61 1.53 1.86 1.16 0.57 0.80 0.78 0.26 0.19 0.22 0.26 0.28 0.20 0.36 0.45 0.13 0.17 0.14 0.34 0.42 0.61 0.52 0.81 0.85 0.48 0.14 0.09 0.27 0.41 0.65 0.57 0.56 0.33 0.21 0.05 0.00 0.03 0.09 0.07 0.04 0.03 0.01 0.00 0.00
1.85 1.08 1.10 0.80 0.54 0.66 0.72 0.49 0.19 0.27 0.36 0.19 0.23 0.05 0.10 0.23 0.14 0.12 0.29 0.46 0.64 0.70 0.85 1.08 1.07 0.38 0.12 0.03 0.05 0.10 0.15 0.29 0.37 0.19 0.08 0.03 0.01 0.02 0.03 0.09 0.13 0.10 0.05 0.01 0.00
1.09 0.70 1.21 1.26 0.73 0.93 0.58 0.25 0.26 0.32 0.22 0.03 0.07 0.11 0.07 0.05 0.06 0.26 0.26 0.36 0.53 0.69 0.89 1.02 0.89 0.42 0.25 0.13 0.21 0.24 0.06 0.10 0.22 0.17 0.07 0.09 0.09 0.02 0.03 0.13 0.40 0.22 0.09 0.06 0.01